Content
SEND FEEDBACK

Daily
Averages
Monthly
Summary
United States of America

CHELSEA, MICHIGAN


Home > North America > United States > Michigan
Elevation: 900 feet     Latitude: 42 19N     Longitude: 084 01W

WEATHER
 
SELECT A DAY
Number of Records: 206,302;   Date Range: 1/1/95 - 9/30/14
 
SHARE

PRINT THIS DATA

[ ← Previous Day ]
WEATHER ALMANAC - AUGUST 7, 2014
[ Next Day → ]
[ °C ]   °F
Weather ElementAverageHighLow
Temperature62.6 °F82.9 °F (4:53 pm)48.9 °F (4:02 am)
Dewpoint51.4 °F57 °F (8:53 am)46.9 °F (4:05 am)
Humidity72.1 %97 % (4:02 am)32 % (4:53 pm)
Barometer30.10 in30.13 in (8:53 am)30.05 in (7:53 pm)
Wind Speed1.9 mph9.2 mph (7:53 pm)
Weather ElementAverage
Visibility5.7 mi
Wind DirectionENE (53 °)

Weather ElementTotal
Precipitation---
Cooling Degree Days0.9 (Base 65)
Growing Degree Days15.9 (Base 50)
Averaged from 37 records on August 7, 2014
WEATHER CONDITIONS BREAKOUT
WIND DIRECTION BREAKOUT
WEATHER BY HOUR - AUGUST 7, 2014
[ °C ]   °F
Local TimeTemperatureDewpointHumidityBarometerVisibilityWind DirectionWind SpeedGust SpeedPrecipitationEventsConditions
1:21 AM52.0 °F50.0 °F93 %30.10 in1.5 miCalmClear
1:28 AM54.0 °F51.1 °F90 %30.10 in1.2 miCalmClear
1:31 AM54.0 °F52.0 °F93 %30.10 in2.5 miCalmClear
1:38 AM55.0 °F52.0 °F89 %30.10 in10.0 miCalmClear
1:53 AM54.0 °F51.1 °F90 %30.09 in1.0 miCalmClear
2:00 AM54.0 °F52.0 °F93 %30.09 in0.5 miCalmFogFog
2:53 AM53.1 °F50.0 °F89 %30.09 in0.5 miCalmFogFog
3:00 AM53.1 °F51.1 °F93 %30.09 in1.5 miCalmClear
3:02 AM53.1 °F50.0 °F89 %30.09 in4.0 miCalmClear
3:18 AM52.0 °F48.9 °F89 %30.09 in1.8 miCalmClear
3:22 AM53.1 °F50.0 °F89 %30.09 in0.8 miCalmClear
3:50 AM53.6 °F51.8 °F94 %30.10 in1.8 miCalmClear
3:53 AM55.0 °F51.1 °F86 %30.09 in6.0 miCalmClear
4:02 AM48.9 °F48.0 °F97 %30.10 in1.5 miCalmClear
4:05 AM48.9 °F46.9 °F93 %30.10 in0.8 miCalmClear
4:53 AM51.1 °F48.9 °F92 %30.09 in0.2 miCalmFogFog
5:53 AM50.0 °F46.9 °F89 %30.09 in0.2 miCalmFogFog
6:53 AM48.9 °F46.9 °F93 %30.11 in0.2 miCalmFogFog
7:37 AM54.0 °F52.0 °F93 %30.11 in1.5 miCalmClear
7:40 AM54.0 °F52.0 °F93 %30.12 in4.0 miCalmClear
7:53 AM57.0 °F54.0 °F89 %30.11 in10.0 miCalmClear
8:53 AM68.0 °F57.0 °F68 %30.13 in10.0 miWNW (290°)4.6 mphClear
9:53 AM73.0 °F54.0 °F51 %30.13 in10.0 miNW (310°)5.8 mphClear
10:53 AM75.9 °F53.1 °F45 %30.13 in10.0 miNW (310°)6.9 mphClear
11:53 AM78.1 °F52.0 °F40 %30.13 in10.0 miCalmPartly Cloudy
12:53 PM80.1 °F50.0 °F35 %30.11 in10.0 miVariable3.5 mphClear
1:53 PM81.0 °F51.1 °F35 %30.11 in10.0 miCalmPartly Cloudy
2:53 PM78.1 °F52.0 °F40 %30.10 in10.0 miVariable6.9 mphMostly Cloudy
3:53 PM79.0 °F51.1 °F38 %30.09 in10.0 miCalmPartly Cloudy
4:53 PM82.9 °F50.0 °F32 %30.08 in10.0 miNNW (340°)5.8 mphClear
5:53 PM80.1 °F51.1 °F36 %30.07 in10.0 miNE (40°)4.6 mphMostly Cloudy
6:53 PM80.1 °F51.1 °F36 %30.06 in10.0 miNNE (30°)6.9 mphPartly Cloudy
7:53 PM79.0 °F52.0 °F39 %30.05 in10.0 miNorth (360°)9.2 mphMostly Cloudy
8:53 PM73.9 °F55.0 °F52 %30.06 in10.0 miEast (100°)9.2 mphClear
9:53 PM69.1 °F55.0 °F61 %30.08 in10.0 miESE (120°)4.6 mphClear
10:53 PM66.0 °F55.9 °F70 %30.09 in10.0 miCalmMostly Cloudy
11:53 PM64.0 °F55.9 °F75 %30.10 in10.0 miENE (60°)3.5 mphPartly Cloudy
Hourly data recorded from KARB, located miles away from Chelsea, Michigan







STORIES FROM OUR PARTNERS